Regional Weather Roundup
Issued by NWS

Home | Current Version | Previous Version | Text Only | Print | Product List | Glossary On
Versions: 1 2 3 4 5 6 7 8 9 10 11 12 13 14 15 16 17 18 19 20 21 22 23 24 25 26 27 28 29 30 31 32 33 34 35 36 37 38 39 40 41 42 43 44 45 46 47 48 49 50
000
ASUS42 KTBW 311010
RWRFL
FLORIDA REGIONAL WEATHER ROUNDUP
NATIONAL WEATHER SERVICE TAMPA BAY RUSKIN FL
500 AM EST SAT JAN 31 2015

NOTE: "FAIR" INDICATES FEW OR NO CLOUDS BELOW 12,000 FEET WITH NO
SIGNIFICANT WEATHER AND/OR OBSTRUCTIONS TO VISIBILITY.


FLZ001>010-012>015-112-114-115-311100-
PANHANDLE FLORIDA

CITY           SKY/WX    TMP DP  RH WIND       PRES   REMARKS
PENSACOLA      CLEAR     42  27  55 NE7       30.30S WCI  38
PENSACOLA NAS  CLEAR     42  28  57 NE8       30.30S WCI  37
MILTON NAS     CLEAR     37  26  64 N5        30.31S WCI  33
CRESTVIEW      CLEAR     36  27  69 N5        30.33S WCI  32
DUKE FIELD     FAIR      34  27  77 N2        30.31S
VALPARAISO     PTCLDY    37  27  69 N5        30.31R WCI  33
MARY ESTHER    CLEAR     37  26  65 NE8       30.30S WCI  31
TRI COUNTY     FAIR      33  30  88 CALM      30.33S
PANAMA CITY    FAIR      39  29  67 N3        30.29F
TYNDALL AFB    PTCLDY    43  30  59 NE7       30.31R WCI  39
APALACHICOLA   PTCLDY    42  31  64 NE5       30.29S WCI  39

STATION/POSITION SKY/WX   TEMP    WIND        PRES    WAVE   SWELL
                          AIR SEA DIR/SP/G            HT/PER HT/PER
                          (F)     (DEG/KT/KT) (MB)    (FT/S) (FT/S)
30.1N   87.6W              52 62   50/ 17/ 19 1025.3S   4/ 5
29.2N   88.2W              59 68   60/ 17/ 21 1024.8F   4/ 5
28.7N   86.0W              59 69   60/ 17/ 21 1024.2    5/ 6
PANAMA CITY BEAC           44 59   30/  8/ 11 1025.6S
CAPE SAN BLAS    NOT AVBL
TOWER C                    51      50/ 20/ 22 1024.9S
28.5N   84.5W              58 67   60/ 17/ 23 1023.9F   5/ 6

$$
FLZ011-016>038-118-127-128-134-139-239-311100-
NORTH FLORIDA

CITY           SKY/WX    TMP DP  RH WIND       PRES   REMARKS
MARIANNA       CLEAR     34  31  88 CALM      30.32R
TALLAHASSEE    PTCLDY    33  27  78 CALM      30.30F
PERRY          PTCLDY    38  31  77 CALM      30.30S
CROSS CITY       N/A     38  30  73 NE3       30.27F
LAKE CITY      FAIR      37  32  81 N6        30.28S WCI  33
GAINESVILLE    PTCLDY    40  29  64 NE7       30.27R WCI  35
MAYPORT NAS    PTCLDY    44  37  76 N5        30.28S WCI  42
JACKSONVILLE   MOCLDY    37  31  78 N5        30.28S WCI  33
JAX NAS        MOCLDY    47  31  53 N12       30.29S WCI  42
JAX CRAIG      PTCLDY    41  32  70 NW5       30.28S WCI  38
JAX CECIL      PTCLDY    32  28  86 CALM      30.29R
FERNANDINA BEA FAIR      48  37  66 N6        30.27S
ST AUGUSTINE   PTCLDY    42  34  73 NW8       30.28S WCI  37

STATION/POSITION SKY/WX   TEMP    WIND        PRES    WAVE   SWELL
                          AIR SEA DIR/SP/G            HT/PER HT/PER
                          (F)     (DEG/KT/KT) (MB)    (FT/S) (FT/S)
SHELL POINT                42      10/  4/  5   N/A
KEATON BEACH               39      30/  6/  9 1025.5S
CEDAR KEY                  45      40/  6/  7 1025.3F
FERNANDINA                 45 55   20/  5/  8 1024.8F
30.7N   81.3W                 57                N/A     3/ 5
MAYPORT                    44 58  350/  5/  7 1025.1F
31.4N   80.9W              50 54   40/ 16/ 17 1025.7R   4/ 6
ST AUGUSTINE               55      20/ 16/ 17 1025.2S

$$
FLZ040-043>046-052-053-057-058-063-144-311100-
INTERIOR CENTRAL FLORIDA

CITY           SKY/WX    TMP DP  RH WIND       PRES   REMARKS
OCALA          PTCLDY    36  30  80 NE5       30.25F WCI  32
THE VILLAGES     N/A     45  34  65 N5        30.15F WCI  42
LEESBURG       PTCLDY    44  35  70 N7        30.26S WCI  40
SANFORD        PTCLDY    49  38  65 N7        30.24S
ORLANDO EXEC   CLEAR     49  36  61 N8        30.23F
ORLANDO INTL   PTCLDY    47  39  74 N8        30.24S WCI  43
WINTER HAVEN   CLEAR     48  38  68 N8        30.24S WCI  44
LAKELAND       CLEAR     45  36  70 NE6       30.24S WCI  41
BARTOW         FAIR      48  36  61 NE8       30.24S WCI  45
OKEECHOBEE     CLEAR     45  43  93 N5        30.20F WCI  42

$$
FLZ041-047-054-059-064-141-147-311100-
EAST CENTRAL FLORIDA

CITY           SKY/WX    TMP DP  RH WIND       PRES   REMARKS
DAYTONA BEACH  PTCLDY    45  37  73 NW5       30.24S WCI  43
DELAND         MOSUNNY  N/A N/A N/A NW3       30.25S
JFK SPACE CTR  CLEAR     48  44  85 NW7       30.21S WCI  45
CAPE CANAVERAL CLEAR     56  46  70 N6        30.20S
PATRICK AFB    CLEAR     55  48  79 NW13      30.20F
MELBOURNE      CLEAR     45  42  89 NW7       30.20S WCI  41
VERO BEACH     CLEAR     49  45  86 NW7       30.19F
FT PIERCE      CLEAR     51  45  79 NW6       30.18F
STUART         CLEAR     54  46  76 NW6       30.18S

STATION/POSITION SKY/WX   TEMP    WIND        PRES    WAVE   SWELL
                          AIR SEA DIR/SP/G            HT/PER HT/PER
                          (F)     (DEG/KT/KT) (MB)    (FT/S) (FT/S)
28.5N   80.2W              65 73   30/ 16/ 19 1022.1F
28.9N   78.5W              63 73   10/ 17/ 21 1022.1R   6/ 8   2/11
TRIDENT PIER     NOT AVBL
28.4N   80.5W                 62                N/A     3/ 6
27.6N   80.2W                 69                N/A     5/ 6   2/11

$$
FLZ050-056-061-142-242-148-248-149-249-151-251-155-255-
160-260-311100-
WEST CENTRAL FLORIDA

CITY           SKY/WX    TMP DP  RH WIND       PRES   REMARKS
CRYSTAL RIVER  FAIR      41  32  70 CALM      30.26R
INVERNESS      FAIR      43  34  70 NE5       30.26S WCI  40
BROOKSVILLE    CLEAR     42  33  70 NE6       30.25F WCI  38
ZEPHYRHILLS    FAIR      37  34  87 CALM      30.25S
CLEARWATER     CLEAR     51  37  58 NE10      30.24S
TAMPA INTL     PTCLDY    48  33  56 NE7       30.24S WCI  45
TAMPA EXEC     CLEAR     43  36  75 CALM      30.25S
PLANT CITY       N/A    N/A N/A N/A MISG        N/A
MACDILL AFB    CLEAR     47  36  67 NE13      30.23S WCI  41
PETER O KNIGHT CLEAR     50  36  57 NE9       30.24S
ST PETERSBURG  CLEAR     54  39  57 NE12      30.22F
SARASOTA       CLEAR     48  36  63 NE8       30.21F WCI  44
VENICE         FAIR      48  41  76 NE10G16   30.22S WCI  44

STATION/POSITION SKY/WX   TEMP    WIND        PRES    WAVE   SWELL
                          AIR SEA DIR/SP/G            HT/PER HT/PER
                          (F)     (DEG/KT/KT) (MB)    (FT/S) (FT/S)
CEDAR KEY                  45      40/  6/  7 1025.3F
28.5N   84.5W              58 67   60/ 17/ 23 1023.9F   5/ 6
27.3N   84.3W                 72                N/A     6/ 6
CLEARWATER BEACH           50 60   40/  9/ 12 1023.5F
MIDDLE TAMPA BAY           54      60/ 17/ 20 1023.5F
VENICE                     50 63   30/  9/ 12 1022.6F

$$
FLZ066-069-070-075>078-162-262-165-265-311100-
SOUTHWEST FLORIDA AND KEYS

CITY           SKY/WX    TMP DP  RH WIND       PRES   REMARKS
PUNTA GORDA    CLEAR     46  44  93 NE7       30.22F WCI  42
FT MYERS       CLEAR     52  46  80 NE9       30.19S
SOUTHWEST INTL CLEAR     52  47  83 NE8       30.19F
NAPLES         CLEAR     55  50  83 NE9       30.17S
MARCO ISLAND   MOSUNNY   55  48  76 NE12      30.17R
IMMOKALEE      SUNNY     48 N/A N/A NE7       30.20S
MARATHON       CLEAR     63  60  90 NE13      30.14S
KEY WEST NAS   CLEAR     65  60  84 NE13      30.15S
KEY WEST INTL  PTCLDY    63  61  93 NE12      30.15S

STATION/POSITION SKY/WX   TEMP    WIND        PRES    WAVE   SWELL
                          AIR SEA DIR/SP/G            HT/PER HT/PER
                          (F)     (DEG/KT/KT) (MB)    (FT/S) (FT/S)
VENICE                     50 63   30/  9/ 12 1022.6F
NAPLES                     56      40/  6/ 10 1022.2R
26.0N   85.6W              67 73   60/ 16/ 19 1021.7F   5/ 7
DRY TORTUGAS               68      20/ 17/ 18 1020.5S
NW FL BAY                  62      40/ 12/ 14 1021.0R
SAND KEY                   66      30/ 20/ 22 1020.7R
SOMBRERO KEY               64      20/ 17/ 19 1020.8F
LONG KEY                   63 65   10/ 13/ 15 1021.3S
MOLASSES REEF              64 75   10/ 17/ 18 1020.1R

$$
FLZ067-068-071>074-168-172>174-311100-
SOUTHEAST FLORIDA

CITY           SKY/WX    TMP DP  RH WIND       PRES   REMARKS
W PALM BEACH   PTCLDY    57  50  77 NW7       30.15S
FT LAUDER-EXEC CLEAR     60  49  66 N6        30.15S
FT LAUDERDALE  PTCLDY    60  50  69 N7        30.15R
POMPANO BEACH  PTCLDY    62  48  60 N8        30.15S
PEMBROKE PINES CLEAR     60  49  66 N8        30.16S
OPA LOCKA      PTCLDY    61  50  67 N8        30.15S
MIAMI          MOCLDY    63  50  62 N8        30.15S
WEST KENDALL   MOCLDY    61  52  72 N9        30.15S
HOMESTEAD      MOCLDY    60  55  85 NW8       30.14S

STATION/POSITION SKY/WX   TEMP    WIND        PRES    WAVE   SWELL
                          AIR SEA DIR/SP/G            HT/PER HT/PER
                          (F)     (DEG/KT/KT) (MB)    (FT/S) (FT/S)
PORT EVERGLADES            63     320/  7/ 11 1020.5
VIRGINIA KEY               64 70  360/  6/ 10 1020.9S
LAKE WORTH                 63 74  320/  7/  8 1020.7R
SETTLEMENT POINT           66      30/ 18/ 20 1021.7R

$$




USA.gov is the U.S. government's official web portal to all federal, state and local government web resources and services.